Location: Colonia Mina de C?rbuni
(46.1667°N, 22.7167°E)
Time: 15:49:38
(UTC+00:00)

S-56A Canister/Altair - Pass Details

Date: 14 April 2024
Orbit: 638 x 2488 km, 38.9° (Epoch: 19 May)

Event Time Altitude Azimuth Distance (km) Brightness Sun altitude
Rises 20:14:14 0° 268° (W) 4,271 11.8 -26.4°
Reaches altitude 10° 20:16:48 10° 263° (W) 3,518 11.2 -26.7°
Maximum altitude 20:25:52 56° 189° (S) 2,149 9.4 -27.6°
Enters shadow 20:29:09 45° 146° (SE) 2,549 9.6 -27.9°
